Showing default

GOES 18, 51850

Orbit data source: Space-Track

GOES 18, 51850 is a payload satellite owned by NOAA (US) in GEO that was launched on Tue, 01 Mar 2022 UTC via an ATLAS V 541 launch vehicle from the Air Force Eastern Test Range (AFETR). Payload-class satellites include a variety of spacecraft equipped with specific instruments for various scientific and technological missions. These include communications satellites like Starlink; space stations such as the ISS; scientific satellites like the Hubble; Earth observation satellites from companies like Planet Labs, Umbra, and HawkEye 360; GPS; miniature CubeSats for education and research; and military/defense satellites.

Loading next visibility...
Identifier
51850, 2022-021A
Orbit
GEO
Country
Flag of USUS
Related business
Manufacturer
LMCSS
Mission
Operational Civil Weather
Bus & Motor
A2100, LEROS-1C
Mass
5,209 kg wet, 2,857 kg dry
Launch date (UTC)
2022-03-01 (4 years ago)
Launch vehicle
ATLAS V 541
Launch site
Air Force Eastern Test Range (AFETR)
Object type
Payload
Rocket body
Debris
Shape & HBR
Box + 1 Pan + 1 Rod, 20.0 m
Radar Cross Section
37.561 m², Large (>1 m²)

Expand to show TLE details & history
Last TLE update: 8 hours ago

TLE from 8 hours ago
0 GOES 18
1 51850U 22021A   26166.44576492  .00000100  00000-0  00000+0 0  9998
2 51850   0.0095  98.2877 0000304  69.5189 119.3964  1.00269603  6579
Epoch: 2026-06-15T10:41Z
TLE epoch observation values (Epoch: 2026-06-15T10:41:54.089Z)
Latitude
-0.00001°
Longitude
-136.99946°
Altitude
35,787.324 km
Speed
3.075 km/s
True Right ascension
19h 08m 49s
True Declination
0° 00' 00"
Sunlit
Object was in daylight at epoch
Visualization orbit readout
Latitude
Unknown
Longitude
Unknown
Altitude
Unknown
Speed
Unknown
Apparent Right ascension
Unknown
Apparent Declination
Unknown
Sunlit
N/A
Visualization observer readout
Local Sidereal Time
05:06:49
Azimuth
Unknown
Elevation
Unknown
Doppler factor
Unknown
Orbital elements
Apogee altitude
35,789.559 km
Perigee altitude
35,786.995 km
Semi-major axis
42,166.414 km
Eccentricity
0.00003
Inclination
0.0095°
RAAN
98.2877°
Arg. of periapsis
69.5189°
True anomaly
119.39943°
Mean anomaly
119.3964°
Eccentric anomaly
119.39792°
Mean motion
0.25066 °/min
Orbital period
1,436.18 mins
BSTAR
0
Loading maneuver chart data...
Computing Atmospheric mass density...
Loading historical data...
Loading historical data...
Loading historical data...
Loading historical data...
Loading historical data...
Loading historical data...
Loading historical data...
Other satellites on launch #21 in the year 2022 (2022-03-01 UTC)

Documentation

Showing up to 5 results
|